Location: La Comballaz
(46.3780°N, 7.0817°E)
Time: 04:02:03
(UTC+00:00)

Envisat - Pass Details

Date: 10 December 2021
Orbit: 764 x 766 km, 98.2° (Epoch: 16 January)

Event Time Altitude Azimuth Distance (km) Brightness Sun altitude
Rises 05:07:30 0° 9° (N) 3,244 6.2 -19.2°
Reaches altitude 10° 05:09:52 10° 5° (N) 2,313 5.4 -18.8°
Maximum altitude 05:14:48 52° 290° (WNW) 945 3.1 -18.0°
Drops below altitude 10° 05:19:42 10° 214° (SW) 2,296 5.3 -17.2°
Sets 05:22:02 0° 210° (SSW) 3,217 6.1 -16.8°
